Location: Riddle Hill
(39.7867°N, 89.7645°W)
Time: 21:59:36
(UTC+00:00)

Helios 1A Rocket - Pass Details

Date: 29 October 2020
Orbit: 563 x 586 km, 98.3° (Epoch: 30 November)

Event Time Altitude Azimuth Distance (km) Brightness Sun altitude
Rises 23:36:25 0° 135° (SE) 2,794 6.1 -7.6°
Reaches altitude 10° 23:38:52 10° 122° (ESE) 1,896 5.1 -8.1°
Maximum altitude 23:42:09 24° 68° (ENE) 1,231 4.0 -8.7°
Drops below altitude 10° 23:45:27 10° 15° (NNE) 1,896 5.3 -9.3°
Sets 23:47:54 0° 1° (N) 2,795 6.3 -9.8°
